This demonstration page uses our WeatherBlox Daily Observations layout. Learn more.

Left ArrowRight Arrow

39.92423, -83.80882

Hourly Observations for March 18, 2021

Temp ( °F °C ) Dew Point ( °F °C ) Humidity (%) Winds ( mph kmh ) Pressure ( in mb ) Visibility ( mi km ) Precip ( " mm )
12:56 am 00:56 Cloudy with Light Rain 51 10.6 51 10.6 100 100 E 6 9 29.79 1009 5 8 N/A
1:56 am 01:56 Cloudy with Light Rain 51 10.6 51 10.6 100 100 ENE 7 11 29.76 1008 7 11 N/A
2:06 am 02:06 Cloudy with Light Rain 52 11 52 11 100 100 E 9 15 29.76 1008 8 13 N/A
2:22 am 02:22 Cloudy with Light Rain 52 11 52 11 100 100 E 12 19 29.75 1007 6 10 N/A
2:56 am 02:56 Cloudy with Light Rain 51 10.6 51 10.6 100 100 E 10 17 29.73 1007 5 8 N/A
3:21 am 03:21 Cloudy with Light Rain 52 11 52 11 100 100 E 10 17 29.73 1007 3 5 N/A
3:56 am 03:56 Cloudy with Light Rain 50 10 50 10 100 100 E 12 19 29.70 1006 3 5 N/A
4:56 am 04:56 Cloudy with Light Rain 50 10 50 10 100 100 E 13 20 29.66 1004 5 8 N/A
5:56 am 05:56 Cloudy with Light Rain 50 10 50 10 100 100 ENE 10 17 29.65 1004 7 11 N/A
6:56 am 06:56 Cloudy with Rain 50 10 50 10 100 100 ENE 16 26 29.63 1004 7 11 N/A
7:07 am 07:07 Cloudy with Light Rain 50 10 50 10 100 100 ENE 14 22 29.64 1004 7 11 N/A
8:36 am 08:36 Cloudy with Light Rain 48 9 48 9 100 100 NE 15 24 29.64 1004 2 3 N/A
8:51 am 08:51 Cloudy with Light Rain 46 8 46 8 100 100 NE 21 33 29.63 1003 3 5 N/A
8:56 am 08:56 Cloudy with Light Rain 47 8.3 47 8.3 100 100 NE 17 28 29.62 1003 2 3 N/A
12:56 pm 12:56 Cloudy with Light Rain 43 6.1 43 6.1 100 100 NNE 22 35 29.67 1005 6 10 N/A
1:56 pm 13:56 Cloudy 45 7.2 45 7.2 100 100 NE 25 41 29.67 1005 10 16 N/A
2:56 pm 14:56 Cloudy 45 7.2 44 6.7 97 97 NE 22 35 29.67 1005 10 16 N/A
3:56 pm 15:56 Cloudy with Light Rain 43 6.1 43 6.1 100 100 NE 24 39 29.71 1006 10 16 N/A
4:56 pm 16:56 Cloudy with Light Rain 41 5 41 5 100 100 NNE 23 37 29.73 1007 10 16 N/A
5:56 pm 17:56 Cloudy with Light Rain 39 3.9 39 3.9 100 100 NNE 29 46 29.75 1008 10 16 N/A
6:56 pm 18:56 Cloudy 38 3.3 38 3.3 100 100 NNE 29 46 29.80 1009 10 16 N/A
7:56 pm 19:56 Cloudy with Light Rain 38 3.3 38 3.3 100 100 NNE 28 44 29.84 1011 10 16 N/A
8:37 pm 20:37 Cloudy 37 3 37 3 100 100 NNE 25 41 29.89 1012 10 16 N/A
8:56 pm 20:56 Cloudy 38 3.3 36 2.2 93 93 NNE 23 37 29.89 1012 10 16 N/A
9:56 pm 21:56 Cloudy 39 3.9 34 1.1 82 82 NNE 31 50 29.94 1014 10 16 N/A
10:56 pm 22:56 Cloudy 39 3.9 33 0.6 79 79 NNE 23 37 29.98 1015 10 16 N/A
11:39 pm 23:39 Cloudy 37 3 34 1 87 87 NNE 25 41 30.02 1017 10 16 N/A
11:47 pm 23:47 Cloudy 37 3 34 1 87 87 NNE 25 41 30.02 1017 10 16 N/A
11:56 pm 23:56 Cloudy 37 2.8 33 0.6 86 86 NNE 26 43 30.01 1016 10 16 N/A

Powered by AerisWeather